Location: Ciserano
(45.5833°N, 9.6000°E)
Time: 12:01:59
(UTC+00:00)

Cosmos 1707 Rocket - Pass Details

Date: 29 November 2020
Orbit: 605 x 631 km, 82.5° (Epoch: 25 January)

Event Time Altitude Azimuth Distance (km) Brightness Sun altitude
Rises 06:00:41 0° 347° (NNW) 2,882 6.6 -6.9°
Reaches altitude 10° 06:02:56 10° 344° (NNW) 1,970 5.8 -6.5°
Maximum altitude 06:07:13 59° 265° (W) 704 3.6 -5.8°
Drops below altitude 10° 06:11:27 10° 186° (S) 1,949 6.4 -5.2°
Sets 06:13:40 0° 183° (S) 2,848 7.3 -4.8°
